TDRS 8

Last updated on Mon Nov 03 2025 00:02:46 GMT+0000 (Coordinated Universal Time)

1 26388U 00034A 25305.76905568 -.00000180 00000+0 00000+0 0 9993 2 26388 12.3238 33.2056 0002857 208.8343 160.9302 1.00269372 92908
UTC large
Height (km)
Speed (km/s)
/
Latitude / Longitude
Inclination (degrees)
Orbital Period (minutes)
Azimuth
Elevation
Range (km)
Doppler Factor

Next 0 passes for location: London (51.5072 / 0.1276)

Sorry there are no passes over London.